GFSWCAN_850_rhum_288.txt.gz
RH
28 32 49 100 100 100 96 99 95 96 92 94 93 92 95 89 91 98 97 91 99 96 96 98 97 97 97 95 78 92 82 84 82 85 61 61 69 72 72 82 85 82 86 84 88 91 94 91 74 80 90 89 93 93
30 40 99 100 96 96 98 95 96 98 94 92 92 95 95 98 97 80 70 82 94 96 97 94 98 96 96 96 98 99 79 83 71 68 78 74 74 73 81 85 79 86 91 88 92 89 93 100 98 100 100 98 96 98
41 50 59 60 96 96 96 96 96 93 91 92 92 94 99 82 68 58 74 98 99 97 96 96 99 93 99 97 96 96 93 95 94 74 83 82 85 77 82 86 82 82 92 80 82 85 90 95 100 100 100 100 100 100
42 42 42 36 41 91 97 97 94 93 94 91 90 83 68 74 57 57 88 95 92 94 86 97 99 93 96 97 96 96 92 97 86 85 90 83 83 87 86 84 76 87 85 88 89 92 98 100 100 100 100 100 100 100
48 37 25 24 44 80 96 95 93 95 91 89 93 76 77 76 67 84 99 97 97 97 86 94 95 97 96 96 96 96 96 91 89 91 84 88 86 82 84 70 83 94 91 86 87 98 98 98 98 97 97 99 99 100
55 39 28 23 19 33 89 94 95 93 91 93 93 88 84 71 57 90 98 84 69 96 94 84 96 96 96 96 95 95 96 90 81 92 94 99 98 86 85 86 96 100 100 100 98 99 99 100 100 98 98 98 100 100
55 40 28 14 12 47 95 88 93 92 92 94 99 99 79 59 62 60 88 57 62 98 96 91 90 94 95 96 88 88 86 80 91 97 90 90 92 78 80 86 97 100 100 100 100 99 100 98 100 99 98 98 99 100
54 40 18 11 16 20 21 30 73 93 45 50 94 96 97 82 74 73 76 51 70 94 93 90 84 88 94 94 94 70 70 81 91 95 92 86 80 71 87 97 100 100 100 99 99 99 99 99 100 100 97 94 95 94
51 24 12 13 16 16 16 18 85 34 58 67 94 88 66 55 69 86 100 59 48 74 88 82 89 89 96 96 98 93 80 80 84 75 81 65 65 89 94 100 100 100 100 100 99 100 100 100 100 100 99 98 96 94
42 15 13 17 16 14 14 17 23 36 52 79 87 60 38 44 52 69 53 37 42 54 71 88 92 86 97 89 90 91 90 81 86 83 68 68 89 100 100 100 100 100 100 100 100 95 99 100 100 100 100 100 100 100
22 17 18 17 13 13 14 14 24 39 46 52 46 34 29 26 30 31 55 77 76 84 92 95 92 90 96 88 88 97 88 78 85 81 68 79 82 93 100 100 100 100 100 100 100 100 100 100 100 100 100 100 100 100
19 21 20 15 11 8 8 12 34 36 38 34 27 21 22 32 35 61 83 72 79 96 94 90 94 96 98 100 91 93 88 71 92 63 70 81 87 100 100 100 100 100 100 100 100 100 100 100 100 100 100 100 100 100
24 25 20 16 12 11 11 23 41 34 19 14 19 34 41 68 87 93 99 85 87 87 95 98 91 100 97 92 96 78 82 90 61 76 82 85 99 100 100 100 100 100 100 100 100 100 100 100 100 100 100 100 100 100
28 20 24 16 15 15 10 28 41 31 14 29 42 86 89 96 91 94 89 87 90 100 99 100 100 96 88 85 80 82 86 64 80 82 85 84 98 100 100 100 100 100 100 100 100 100 100 100 100 100 100 100 99 98
67 18 17 14 14 17 13 21 31 14 30 54 56 100 100 99 91 92 98 100 100 100 100 100 94 78 82 79 71 64 74 85 78 83 79 90 100 100 100 100 100 100 100 99 99 98 98 98 97 95 100 99 99 96
70 16 18 18 18 18 17 14 15 28 55 67 89 89 90 86 91 98 99 100 100 100 92 70 81 80 90 86 84 98 81 89 82 85 95 100 100 100 100 100 100 100 100 100 100 100 100 100 98 93 92 96 96 97
48 29 47 33 21 18 18 16 34 59 67 74 85 95 97 99 100 100 100 100 75 86 87 79 86 100 84 87 94 87 89 83 92 95 97 100 100 100 100 99 100 100 99 99 98 98 100 100 99 98 94 91 92 92
62 52 45 55 25 22 24 37 50 64 81 82 81 85 91 97 97 93 80 69 57 67 74 87 78 94 99 95 85 89 96 99 99 100 100 100 100 100 100 100 100 100 100 100 100 100 100 99 96 95 93 92 88 90
17 18 19 21 21 25 34 42 49 68 77 79 74 74 75 76 72 68 63 60 60 66 67 70 91 95 86 92 93 93 98 100 100 100 100 100 100 100 100 100 100 100 100 100 99 99 98 100 100 99 97 97 96 96
18 17 18 21 18 30 41 49 57 54 68 69 68 65 66 72 71 66 65 63 64 68 84 95 91 98 99 100 100 100 100 100 100 100 100 100 100 100 100 100 100 100 100 100 98 100 100 98 98 100 100 100 100 100
20 25 22 18 25 36 48 52 62 64 61 57 58 59 63 66 68 74 75 74 77 96 94 100 100 100 100 100 100 100 100 100 100 100 100 100 100 100 100 100 100 100 100 100 98 96 98 100 99 100 100 97 99 100
20 21 23 26 30 40 48 63 61 59 58 54 57 59 62 70 76 76 79 84 98 100 100 100 100 100 100 100 100 100 100 100 100 100 100 100 98 96 97 100 100 100 100 100 100 100 100 100 100 100 100 100 100 100
17 19 22 27 28 36 50 54 55 58 58 62 59 61 71 73 74 71 87 97 100 100 100 100 100 100 100 100 100 100 100 100 100 100 99 100 100 100 100 100 100 100 100 100 100 100 100 100 100 100 100 100 100 98
18 22 25 30 35 44 47 55 59 64 66 74 78 86 85 82 69 80 100 99 100 100 100 100 100 100 97 98 100 100 100 100 100 100 100 100 96 97 99 100 100 100 100 100 100 96 86 80 100 94 100 100 100 100
22 49 41 53 54 48 69 73 76 73 99 100 94 93 89 89 97 100 97 98 100 100 100 100 100 100 100 98 100 100 100 100 100 100 100 100 100 94 82 78 79 97 100 100 92 78 70 70 70 74 88 98 100 100
86 81 66 77 78 71 93 96 100 100 99 98 100 98 89 87 94 100 98 100 100 100 100 100 100 98 99 100 96 72 61 70 89 91 97 100 100 100 98 94 86 79 97 100 100 88 77 75 78 84 85 79 81 82
86 80 79 89 82 85 90 98 98 94 100 100 100 99 89 99 99 100 98 100 100 99 100 100 100 99 78 60 59 59 51 56 73 91 92 99 100 100 100 100 100 99 100 100 100 90 91 92 97 95 89 80 76 73
73 68 75 80 79 88 90 100 100 100 100 100 100 100 99 99 97 96 100 100 85 74 82 92 85 69 61 55 47 45 45 47 50 56 64 74 89 100 100 100 100 100 100 100 99 92 91 99 100 95 85 81 77 78
67 70 75 82 85 89 98 100 100 98 100 100 99 99 96 96 97 98 98 84 66 61 61 60 61 61 60 61 61 59 61 68 68 64 65 68 70 79 97 100 100 100 95 94 85 86 81 100 86 81 80 77 72 70
65 64 66 79 84 92 88 87 90 91 94 94 95 91 91 90 86 81 79 70 58 58 60 61 61 60 61 60 60 63 69 70 74 76 74 74 80 89 96 100 96 97 96 94 76 67 69 64 63 65 67 69 68 67
54 54 60 72 75 81 77 75 75 75 74 77 78 80 82 76 67 65 64 64 61 58 58 56 57 59 60 62 66 71 76 85 91 93 94 92 90 87 92 98 100 93 94 95 80 67 62 61 59 56 56 58 61 64
52 54 58 64 70 73 71 71 63 63 64 69 71 61 62 68 65 59 64 65 61 59 61 66 71 83 98 98 99 100 100 98 99 100 97 93 91 94 98 100 100 90 89 92 89 77 64 59 58 55 53 54 54 56
56 60 64 71 73 69 63 64 58 57 56 63 66 57 52 57 54 57 61 66 74 90 98 98 99 100 99 98 98 98 98 98 98 99 99 99 99 99 100 99 98 98 96 93 92 88 79 67 59 56 54 51 51 52

GFSWCAN_850_rhum_294.txt.gz
RH
25 26 27 25 32 33 43 58 81 87 95 92 94 92 94 84 88 85 78 75 97 96 91 96 91 99 95 85 91 78 83 72 81 92 88 71 92 94 85 93 97 92 100 97 84 98 99 96 86 90 97 98 94 91
25 24 28 31 34 32 36 53 73 93 96 95 95 93 86 95 94 73 58 74 98 98 97 96 96 92 95 100 100 86 77 84 93 95 90 88 88 77 88 100 82 96 100 100 100 99 96 97 97 99 100 100 99 96
27 29 32 34 33 33 26 36 95 97 96 95 94 93 97 84 78 57 62 45 68 100 98 97 97 99 96 91 99 97 85 97 85 91 96 92 94 88 96 100 98 95 96 96 96 97 97 98 98 97 99 98 99 99
32 37 38 37 33 24 44 96 97 97 97 93 97 89 77 80 80 68 70 78 100 96 93 98 96 95 99 94 98 96 94 95 95 91 93 92 92 72 99 92 88 98 95 98 100 97 97 100 96 98 96 99 98 94
43 44 42 33 21 49 96 97 94 94 95 97 92 82 70 84 94 64 82 60 78 100 96 97 96 98 94 93 97 97 96 95 96 92 90 98 93 83 86 80 95 97 100 100 100 100 100 100 97 94 96 100 99 100
47 44 27 18 17 18 20 42 63 92 98 97 80 75 80 97 76 94 99 78 47 90 97 93 94 95 97 94 91 94 95 94 91 92 95 93 98 97 96 98 99 98 99 99 100 100 97 97 97 96 95 98 100 100
47 31 19 11 13 16 15 14 38 96 81 90 94 93 74 52 59 65 87 63 55 94 96 94 93 87 88 97 92 94 92 96 88 87 92 92 96 79 95 99 99 99 100 98 100 92 100 97 97 93 97 99 98 98
42 20 12 13 13 10 12 32 22 24 84 97 98 92 75 59 58 64 46 39 87 85 88 94 81 85 82 94 96 94 91 80 80 87 87 86 75 67 98 100 98 97 98 93 93 100 96 95 92 96 95 100 100 100
20 14 14 12 8 8 11 12 22 73 96 96 90 54 47 48 69 85 67 39 54 78 85 80 93 94 77 85 96 90 82 87 78 83 72 60 73 99 100 100 99 100 100 100 89 100 100 100 100 98 100 92 95 97
15 14 11 9 8 8 8 11 56 83 99 84 57 44 39 40 39 53 33 41 65 72 76 91 84 91 93 84 90 93 80 91 98 91 64 82 100 100 99 100 96 96 100 100 92 89 92 91 92 98 96 100 100 100
18 13 10 8 8 10 13 29 70 74 85 54 34 26 27 25 33 40 67 70 64 80 82 83 83 90 85 96 96 94 95 87 97 88 77 94 100 100 96 92 98 96 94 100 100 99 100 98 100 100 99 100 99 99
30 13 10 9 18 41 28 31 44 48 37 32 23 23 26 33 44 66 87 65 83 97 88 89 88 91 92 95 95 85 96 80 100 62 83 98 100 95 88 93 99 99 98 100 100 100 100 100 100 97 99 100 100 100
18 16 13 11 10 30 32 19 19 16 13 12 17 36 47 64 84 88 97 92 97 92 89 99 94 88 88 80 83 76 89 100 59 88 98 100 99 86 93 98 96 97 99 100 99 99 100 100 100 100 100 99 100 100
59 63 20 13 11 18 37 22 14 12 11 28 54 88 88 94 92 98 96 94 89 94 98 100 94 83 73 79 67 88 84 69 86 94 100 99 96 99 93 91 96 95 98 98 99 100 100 100 100 100 100 100 100 97
16 17 20 17 13 11 20 22 13 12 29 61 71 100 95 91 93 99 96 100 97 92 99 91 87 69 77 87 74 80 76 94 94 100 99 91 99 95 94 97 99 97 96 99 100 100 100 100 100 100 100 100 99 97
38 18 20 16 16 16 18 17 17 26 68 74 83 81 73 75 87 89 90 92 90 90 99 86 74 86 98 93 87 95 87 100 100 95 88 99 94 96 97 96 99 100 100 100 100 100 100 100 100 98 97 97 99 100
38 63 26 22 21 20 19 17 33 67 72 84 90 78 83 90 90 84 85 89 84 79 84 71 94 100 83 90 98 94 100 98 98 96 100 100 100 98 96 99 100 100 100 100 100 100 100 100 100 100 98 100 100 100
39 91 36 21 25 23 24 36 54 72 96 86 88 80 81 90 92 90 89 78 64 84 84 94 71 90 98 99 99 96 98 95 93 99 94 94 98 95 99 100 100 100 100 100 100 100 100 100 100 100 100 100 98 95
21 25 23 19 24 27 33 41 51 84 89 83 79 81 88 94 91 92 89 84 82 81 81 71 89 100 98 98 99 99 100 100 100 93 99 100 98 100 100 100 100 100 100 100 100 99 100 100 100 100 100 100 96 98
18 19 20 19 24 34 39 47 56 58 72 70 70 80 69 79 92 80 75 73 68 73 82 96 100 100 100 99 100 100 98 100 100 99 100 91 92 100 98 100 100 100 100 100 98 100 99 100 98 100 100 100 100 97
22 27 24 23 32 34 45 51 58 60 62 57 57 62 68 70 73 78 81 77 78 97 99 100 100 99 100 100 100 100 100 100 100 100 100 100 100 100 100 100 100 100 100 100 100 100 100 100 100 99 100 100 100 100
22 24 26 29 32 38 43 53 53 55 57 54 59 63 64 76 83 84 82 86 100 100 100 100 100 100 100 100 100 100 100 100 99 100 100 100 100 99 100 100 100 100 100 100 100 100 100 100 100 100 100 99 100 100
22 24 27 30 31 38 52 52 52 57 63 67 70 74 74 79 74 81 91 99 100 100 100 100 100 100 100 98 94 89 84 69 63 79 92 95 96 97 100 94 95 100 98 93 100 100 100 100 99 100 100 93 87 88
22 27 33 36 39 50 52 62 67 72 69 78 80 95 88 79 70 80 98 100 100 99 96 93 95 83 68 65 63 59 61 57 53 52 66 83 81 84 97 100 100 99 100 100 100 100 100 100 100 97 96 98 96 97
29 57 51 68 65 59 75 80 80 79 99 97 94 96 86 83 88 99 99 98 98 91 81 74 75 79 81 70 63 60 60 60 59 66 71 73 77 81 84 90 92 94 100 100 100 100 100 100 100 97 98 100 100 100
88 83 77 84 82 84 95 97 100 100 96 96 100 96 86 87 96 100 97 94 94 90 80 74 72 68 67 73 74 77 78 83 84 80 76 81 82 79 83 92 92 82 100 100 100 100 100 100 100 99 92 90 94 100
89 79 75 88 86 88 91 95 94 93 100 100 100 98 86 98 98 86 74 80 85 79 80 89 98 99 99 98 98 99 99 100 100 100 98 98 99 99 99 99 97 96 100 98 100 100 100 100 100 94 92 86 86 90
71 69 80 75 74 85 90 97 100 100 100 100 97 100 100 100 86 63 68 81 96 98 99 100 99 99 99 99 100 100 96 98 97 98 99 98 98 100 100 100 100 100 100 100 100 100 100 100 100 100 98 85 75 72
63 59 62 69 79 81 90 96 94 86 87 93 95 89 77 69 57 69 91 98 98 99 96 95 96 97 98 97 98 98 98 98 96 93 94 95 94 98 100 100 100 99 99 99 100 100 100 100 100 100 97 83 72 65
56 53 56 67 78 82 77 74 76 74 72 71 71 66 59 51 62 82 95 97 97 97 98 98 96 99 97 96 89 89 98 98 99 100 99 98 98 98 98 98 98 99 100 99 98 96 98 99 99 99 97 86 79 66
51 52 55 63 67 66 65 62 58 57 58 59 58 59 57 54 66 88 95 97 97 99 95 96 96 98 96 96 96 93 86 96 100 99 99 98 98 95 98 98 100 99 99 100 100 98 98 98 99 99 99 98 95 90
50 54 58 58 58 54 52 52 46 46 47 49 50 52 57 60 68 89 92 94 96 96 99 98 96 95 97 97 97 98 98 98 97 96 95 98 99 100 98 98 98 98 98 98 98 99 99 99 99 100 99 99 99 100
48 50 52 56 53 48 47 48 45 41 44 42 37 41 51 63 72 81 94 98 97 96 97 97 97 96 98 96 81 73 70 75 78 80 83 95 98 100 98 97 98 98 98 98 98 98 98 100 100 100 99 99 98 99

GFSWCAN_850_rhum_300.txt.gz
RH
98 85 44 72 62 47 45 48 47 67 73 71 84 93 91 84 84 82 92 84 84 98 97 92 90 93 93 94 96 81 74 82 97 96 97 93 99 95 92 94 96 93 97 95 95 98 98 96 92 93 99 98 99 98
65 91 72 43 40 38 39 49 51 51 61 73 93 96 92 92 81 79 84 70 79 83 99 97 97 97 95 96 100 95 97 91 89 95 94 90 90 90 97 96 90 95 98 96 99 98 98 100 100 100 98 98 100 98
96 68 43 36 35 39 38 43 39 40 73 95 96 92 94 84 76 81 69 52 52 94 99 97 97 94 92 97 100 97 83 97 96 96 96 95 98 89 96 96 96 93 90 97 94 97 100 100 98 97 99 98 98 95
53 40 37 39 37 32 26 28 39 45 79 96 94 89 90 80 90 86 61 59 72 94 90 99 96 95 93 89 100 100 96 96 96 95 95 96 94 90 96 92 92 99 87 100 100 92 98 98 98 97 96 96 92 92
40 42 39 33 26 19 20 25 29 33 88 97 87 87 99 97 89 71 66 54 53 86 94 96 95 100 92 87 93 95 99 96 95 95 94 98 96 86 84 83 98 100 100 99 99 99 100 98 99 98 97 96 94 99
44 39 31 20 14 14 13 14 25 96 91 86 88 78 99 100 88 71 89 77 40 90 91 96 94 86 92 90 86 89 95 94 95 95 98 98 98 78 96 100 100 100 100 100 100 99 100 100 97 100 99 98 95 98
36 25 18 13 10 8 11 38 38 52 98 99 71 84 94 77 64 56 89 61 70 99 95 96 96 77 78 93 94 90 86 92 94 88 94 90 80 66 95 99 100 100 100 100 100 97 94 98 100 100 99 98 100 100
20 12 9 8 8 8 8 11 40 100 100 100 70 60 42 43 41 50 42 65 92 79 80 95 81 75 72 88 96 83 71 68 73 92 84 69 64 72 98 100 100 100 94 97 95 99 100 100 99 96 97 100 98 96
10 8 7 6 6 7 7 10 72 97 99 62 41 38 39 34 54 93 64 35 49 59 71 80 97 97 78 77 94 85 69 91 73 78 68 64 79 100 100 100 100 100 100 100 97 94 94 97 97 97 98 94 98 100
8 7 9 8 7 6 8 26 94 97 92 64 39 21 36 63 47 52 32 28 43 55 62 86 89 95 89 87 86 85 74 96 100 96 64 91 100 99 98 100 100 100 100 100 99 97 97 98 99 100 100 100 100 100
8 8 9 9 9 18 62 97 97 95 79 42 22 28 30 30 27 37 61 77 68 90 85 83 86 98 81 100 100 92 95 86 99 95 84 97 99 99 98 87 90 97 98 100 100 100 98 98 100 100 100 99 100 100
8 9 15 49 56 69 94 98 94 88 50 29 18 22 25 31 37 60 93 74 91 100 89 99 98 95 93 97 95 72 95 84 100 66 88 100 93 98 100 96 90 93 95 95 97 98 97 100 100 100 100 100 100 100
16 20 64 98 96 97 63 68 55 31 16 12 16 35 40 68 91 98 100 93 99 81 86 98 99 100 80 70 76 81 95 100 67 96 100 99 85 99 100 100 99 95 95 96 96 97 98 100 99 100 100 100 100 99
64 14 12 24 27 30 25 18 14 12 11 29 52 94 92 98 99 100 100 98 88 100 99 100 98 87 71 69 83 82 84 79 94 100 100 89 90 100 100 99 100 100 99 100 99 99 99 100 98 96 97 100 100 97
34 35 24 18 23 28 17 15 14 12 36 65 68 100 100 85 94 98 97 98 92 94 100 95 80 69 80 85 86 82 83 99 98 99 95 92 100 99 100 100 100 100 100 100 99 100 99 98 99 95 93 95 96 99
30 28 69 22 21 21 19 17 15 24 64 76 90 88 82 84 94 100 100 96 85 84 96 71 72 92 98 97 94 100 93 100 95 93 99 100 100 98 100 100 100 100 100 100 100 100 100 100 100 100 96 97 97 99
56 37 42 19 18 17 17 14 35 72 76 82 99 100 99 100 100 98 98 92 68 76 91 77 97 100 79 97 100 100 100 96 100 100 100 100 100 100 100 99 98 100 100 100 100 100 99 99 100 100 100 91 92 89
37 52 33 24 20 17 25 40 56 72 94 92 95 96 95 98 86 74 67 67 60 77 79 93 77 100 100 100 98 91 100 100 100 100 100 98 97 98 100 100 100 100 100 100 98 100 95 100 100 99 97 96 98 84
49 50 24 23 23 25 33 43 56 82 88 83 78 76 75 74 67 62 57 56 55 60 64 72 98 100 100 98 100 100 100 100 100 100 91 79 91 94 98 100 100 98 99 97 90 91 99 100 100 100 100 100 91 100
24 20 20 23 25 32 39 46 50 52 61 67 69 67 72 75 68 63 60 60 63 69 81 93 99 97 100 99 100 100 100 100 100 100 82 70 73 90 99 95 94 93 91 90 89 100 97 100 93 91 96 100 100 93
22 26 22 25 31 34 45 50 59 62 53 55 56 56 61 68 72 73 74 72 74 99 97 96 100 96 95 91 92 96 85 85 88 96 91 88 75 80 67 68 74 82 91 94 96 91 99 93 93 96 100 100 100 100
26 26 27 29 34 43 49 55 54 54 51 57 66 65 63 73 81 82 80 87 100 99 100 100 100 100 97 93 86 86 87 88 91 93 97 96 92 87 86 85 88 83 83 87 94 96 94 97 100 100 100 100 100 100
25 29 34 36 36 43 57 56 56 64 57 66 65 64 64 69 71 72 80 98 98 100 100 100 99 100 99 98 99 99 100 100 99 100 100 100 100 100 100 100 100 100 98 91 95 94 96 100 100 100 100 100 100 94
23 36 38 42 45 55 56 64 69 71 75 85 94 96 80 78 71 82 97 98 98 98 100 99 99 94 91 96 99 99 100 100 99 98 100 99 98 98 100 100 100 100 100 100 98 100 100 100 100 100 100 100 100 100
30 56 48 60 62 58 77 80 81 82 100 99 96 92 87 87 88 98 98 94 100 100 100 99 98 99 100 95 94 97 100 100 100 96 97 100 100 95 92 96 98 99 100 99 98 100 99 100 100 100 100 100 100 100
87 85 71 86 83 78 96 99 100 100 100 94 99 94 94 84 96 98 94 96 99 99 99 100 100 96 96 99 97 96 97 99 98 97 97 100 100 100 95 94 92 85 100 100 100 99 100 100 100 100 100 100 100 100
84 70 70 80 82 88 86 95 97 92 100 100 100 96 92 100 98 92 93 98 98 98 98 98 99 99 98 97 97 98 98 98 98 98 98 98 98 99 99 99 98 99 98 96 97 100 100 98 100 100 100 99 100 100
62 56 68 63 64 73 82 89 89 97 92 89 90 96 100 98 95 94 97 97 97 97 97 96 96 97 97 95 94 94 94 97 94 93 96 96 96 96 96 98 98 98 99 100 100 100 100 100 100 99 100 100 96 100
57 54 59 62 72 71 71 73 68 65 69 72 74 74 92 95 95 95 96 97 98 98 96 94 86 82 76 67 72 82 85 95 92 86 85 88 86 90 99 100 100 98 98 97 98 99 99 100 100 100 100 100 100 100
47 48 52 55 59 58 56 55 52 53 56 62 67 68 69 85 94 96 96 96 97 97 98 100 97 84 78 64 54 53 62 81 96 98 97 96 99 95 96 97 97 98 98 99 98 98 98 97 98 98 98 98 99 98
39 39 40 44 42 41 40 38 37 38 44 46 52 59 58 68 81 94 96 96 96 97 96 98 93 93 80 73 70 57 48 49 59 88 97 97 97 97 97 97 97 97 98 99 98 97 97 97 98 98 99 99 100 100
34 34 40 35 36 35 35 32 31 31 33 38 42 50 58 68 75 90 96 95 94 93 97 98 95 81 72 64 62 60 56 51 47 56 92 96 96 97 97 97 96 97 96 97 98 98 98 98 99 99 99 100 100 100
33 33 32 33 32 32 35 34 33 32 34 33 38 45 52 65 76 83 96 99 98 98 94 92 94 88 76 73 61 54 50 46 44 44 46 84 97 97 97 96 97 97 96 96 97 96 96 98 97 98 99 99 100 100

GFSWCAN_850_rhum_303.txt.gz
RH
99 99 98 97 98 94 97 94 71 74 85 80 81 88 88 88 81 88 90 96 92 97 97 94 93 89 91 94 98 83 78 86 96 98 98 92 98 99 93 98 99 98 98 96 94 99 99 97 87 91 96 100 99 99
98 97 97 97 94 96 66 78 73 68 65 74 84 93 89 94 85 85 87 95 88 81 96 97 95 93 94 97 97 97 98 93 86 97 95 95 90 92 100 100 88 94 99 100 99 98 98 100 100 100 99 100 100 100
98 98 98 96 70 86 78 69 64 67 71 88 93 87 95 91 83 80 77 71 66 85 99 98 99 94 84 96 100 98 86 99 96 95 96 94 96 93 99 99 97 91 96 96 97 95 100 100 97 98 100 100 100 99
99 89 69 67 61 70 60 51 58 64 68 82 86 94 93 88 78 79 72 62 71 94 85 98 97 97 99 87 97 98 93 94 97 95 96 95 95 84 98 96 90 99 90 100 98 90 91 96 96 98 94 99 99 98
74 59 58 56 56 59 54 53 38 41 80 90 96 100 90 81 82 72 57 56 63 82 91 97 95 100 95 96 83 98 99 98 96 96 96 98 96 86 98 86 98 100 100 99 99 100 100 93 100 99 97 99 99 100
64 46 34 23 19 19 19 20 28 93 92 82 96 98 95 94 91 76 82 46 49 77 74 98 87 70 93 100 91 79 92 93 95 95 99 99 100 88 98 99 100 100 100 100 100 100 100 100 99 100 99 93 92 100
28 22 18 13 11 11 28 60 47 96 98 80 94 94 94 80 60 50 75 66 77 94 82 99 92 66 68 82 96 78 77 90 92 97 97 93 93 85 97 99 97 100 100 100 100 92 95 96 100 99 99 94 98 96
15 11 10 9 9 9 12 33 99 99 100 93 94 64 40 38 36 36 39 84 88 78 66 92 81 66 69 78 93 91 69 68 75 96 91 76 67 74 98 99 100 100 92 95 96 100 100 100 100 99 99 99 97 93
8 8 7 7 6 7 10 91 98 98 100 60 40 38 33 31 57 90 48 31 52 51 68 80 99 99 74 77 90 90 66 91 72 72 70 67 80 100 100 100 100 100 100 100 93 90 100 96 95 95 98 95 98 93
10 8 7 7 7 8 16 100 96 96 47 41 36 17 26 42 43 35 34 26 38 52 60 88 86 100 89 89 85 84 73 96 100 96 64 91 100 95 100 99 100 100 100 100 100 100 100 98 97 100 100 100 100 99
21 15 16 85 78 71 50 97 98 79 54 32 19 23 28 27 28 34 58 76 69 83 87 86 87 100 83 100 100 86 94 88 99 96 83 98 99 96 98 100 100 100 100 100 100 100 100 100 100 100 100 100 99 99
92 96 76 98 100 97 97 96 90 87 33 22 15 21 24 29 34 57 93 72 89 100 91 100 100 97 94 100 91 71 93 85 100 70 89 100 89 93 100 98 91 100 100 100 100 100 100 100 100 100 100 100 100 99
90 99 98 100 100 80 78 73 38 20 12 11 15 31 36 67 92 98 100 93 99 80 87 99 99 100 81 68 72 78 91 100 74 98 100 92 73 91 97 97 100 99 100 99 97 99 100 99 98 100 100 99 100 99
39 99 100 100 100 60 38 22 14 10 10 25 45 93 94 100 100 100 100 99 91 97 99 100 100 82 71 69 82 77 83 82 93 100 96 81 81 98 100 97 100 100 96 98 100 99 97 99 98 97 97 99 100 98
80 63 85 57 18 16 14 12 11 10 29 59 64 100 100 91 97 99 100 100 98 100 100 99 82 72 78 85 87 82 81 97 96 92 90 79 99 100 100 98 100 100 100 100 97 100 98 97 100 97 93 98 100 100
59 65 71 32 20 19 16 14 12 21 59 73 94 88 86 84 92 95 98 100 92 92 94 66 75 89 96 98 91 100 92 98 90 78 93 100 100 100 100 100 100 100 100 99 97 98 98 95 99 100 98 97 100 99
22 48 25 16 16 15 13 12 31 68 73 80 99 98 98 100 100 94 92 86 76 77 86 76 92 100 81 95 97 98 100 89 92 100 100 100 100 100 97 100 98 100 100 99 100 100 97 90 92 98 100 93 95 88
61 59 29 22 19 15 20 36 54 71 90 88 88 87 85 86 77 73 65 60 63 79 72 90 80 100 100 100 93 77 85 90 100 100 99 91 78 71 76 85 92 95 95 95 94 95 91 88 94 94 99 100 99 95
53 25 18 18 21 22 31 41 53 81 82 81 76 75 75 72 67 65 60 58 55 59 61 66 96 100 99 83 90 90 99 100 100 97 89 70 68 69 75 77 70 70 74 82 88 92 94 96 100 100 99 96 97 97
20 18 17 19 22 29 38 43 52 50 58 61 65 62 66 71 68 64 60 59 63 68 75 84 94 91 99 96 100 100 96 94 100 100 94 87 92 94 92 97 97 92 86 79 78 98 94 97 93 96 96 99 100 99
18 22 17 19 23 32 46 48 55 58 55 54 57 57 57 59 64 68 77 76 75 96 93 92 98 100 100 100 100 100 100 100 100 100 100 98 90 100 100 100 100 100 100 99 100 92 99 88 87 94 96 95 100 100
20 22 22 24 26 36 46 54 52 52 50 54 59 61 59 67 74 76 85 89 99 96 100 100 99 100 98 99 98 100 100 100 100 100 99 100 97 97 98 100 100 100 100 99 100 100 96 96 96 96 100 100 100 100
18 22 26 29 30 40 50 58 58 63 58 66 63 58 59 65 69 80 82 97 97 99 99 99 99 99 99 98 98 98 99 99 98 99 99 100 100 100 99 97 100 100 97 92 100 100 99 99 100 100 100 99 100 100
19 27 29 37 42 52 52 61 68 70 72 81 92 92 79 77 73 92 97 97 97 98 99 99 99 93 91 95 98 98 99 100 99 97 100 100 99 96 99 98 99 100 100 98 98 99 100 100 100 100 100 100 100 100
25 50 43 57 58 54 75 77 78 78 100 97 95 87 83 87 89 97 97 93 99 100 100 98 96 98 98 90 94 96 100 100 100 98 98 100 97 87 84 92 96 98 99 99 99 99 99 100 100 100 100 100 100 98
79 75 66 82 81 74 95 99 100 100 100 96 97 88 90 85 99 97 96 96 98 98 99 98 98 95 95 98 97 97 97 97 98 98 97 98 98 99 97 98 96 88 100 100 100 100 100 100 100 100 100 100 99 100
72 65 63 72 78 84 80 85 88 86 100 100 94 94 97 100 96 92 94 97 97 97 98 98 99 98 97 95 96 97 97 97 98 97 97 97 97 98 99 99 98 99 99 99 100 100 100 100 100 100 100 100 100 100
56 52 62 63 64 70 70 77 80 89 82 84 89 95 100 98 95 95 97 97 97 97 98 94 90 91 82 74 74 68 71 85 87 90 92 93 96 97 98 100 99 97 99 99 98 99 100 100 100 100 100 100 100 100
52 52 56 53 60 62 61 62 59 60 65 69 76 79 90 94 95 95 96 96 96 97 94 86 77 73 68 62 63 66 60 65 83 86 86 88 85 84 91 97 98 97 98 97 98 98 99 100 99 100 99 100 100 99
46 46 45 43 50 50 48 49 45 47 50 56 62 67 69 78 90 95 95 96 96 96 96 99 92 82 76 64 55 48 54 50 57 82 97 96 96 96 97 97 96 96 97 98 98 97 98 100 97 96 97 99 100 100
34 34 35 37 36 36 36 34 32 34 40 43 49 58 58 66 74 92 95 96 96 97 93 95 90 85 78 72 71 62 50 47 43 42 50 89 97 96 97 97 97 97 98 98 98 99 99 97 99 100 100 100 100 100
28 27 32 30 30 31 30 31 30 30 32 37 38 46 50 63 72 85 95 97 95 92 95 96 95 80 74 69 67 65 62 55 48 42 41 44 54 93 97 96 95 96 96 97 94 97 98 100 100 100 100 100 100 100
25 26 27 29 29 29 32 35 32 30 34 34 36 42 46 55 68 77 91 99 97 96 95 93 95 88 76 72 67 63 58 54 51 48 46 42 41 45 76 91 94 96 96 96 96 94 94 96 100 100 100 100 100 100

GFSWCAN_850_rhum_306.txt.gz
RH
100 100 100 99 98 98 97 97 97 96 97 98 92 94 82 89 86 90 92 95 93 94 97 96 95 91 90 94 98 85 79 90 95 97 97 94 95 97 95 99 100 98 100 100 91 98 99 97 91 94 99 100 99 98
100 99 98 98 98 98 96 96 97 96 93 96 97 94 86 87 88 92 92 99 97 85 95 94 91 88 90 100 98 96 98 96 94 97 97 95 91 91 97 100 90 98 98 100 99 99 98 99 99 100 100 99 100 100
98 98 97 98 98 99 97 96 94 98 98 97 93 81 89 92 97 82 83 90 84 84 99 98 100 93 81 90 99 96 87 97 96 95 96 96 97 92 99 100 100 92 97 100 98 96 98 99 97 98 100 100 100 100
98 97 96 97 95 94 95 96 98 96 90 86 86 96 97 92 76 75 77 81 75 74 83 99 100 94 95 85 81 98 94 96 98 96 96 95 93 92 97 96 91 98 96 100 97 89 79 99 94 100 98 99 100 99
96 93 94 97 97 97 97 85 73 65 91 97 93 98 96 78 80 77 64 70 79 73 90 98 87 98 94 94 76 96 100 97 96 96 96 99 96 93 99 86 99 100 100 100 98 100 100 90 100 100 100 98 96 100
96 90 80 62 58 61 53 30 60 98 98 97 100 96 83 81 78 66 60 45 67 69 68 98 85 66 94 96 84 74 89 93 96 96 99 100 100 93 98 100 98 100 100 100 100 100 93 100 98 100 100 97 92 100
30 24 22 20 27 44 66 95 96 98 100 98 99 80 85 69 63 57 86 82 91 74 72 98 85 65 66 82 94 78 69 87 91 95 98 97 96 86 97 100 98 100 100 100 100 100 85 85 100 98 100 100 100 97
21 17 14 14 36 78 57 99 98 75 100 92 87 52 36 32 34 36 54 91 92 70 56 90 82 64 66 76 91 91 69 68 73 96 92 85 69 74 99 98 98 98 94 84 93 96 98 100 100 90 89 94 94 90
9 8 8 8 11 22 100 99 82 95 100 87 42 36 32 28 47 86 39 30 49 48 66 79 100 99 73 77 87 89 67 94 67 70 65 67 83 100 99 100 100 100 100 100 100 94 88 98 96 91 96 93 98 91
7 7 6 6 7 33 97 99 87 45 38 33 23 13 21 32 31 29 28 26 36 50 59 92 88 100 91 92 86 80 68 99 100 98 64 93 100 88 97 100 100 99 100 100 100 99 100 100 100 97 96 97 100 99
60 98 89 92 42 97 96 98 93 49 39 26 15 23 27 27 27 31 50 69 68 83 90 90 92 100 87 100 100 83 94 89 100 94 84 99 98 83 90 93 89 99 100 100 100 100 100 100 100 100 99 99 99 98
98 94 93 99 80 97 97 94 71 66 42 20 14 19 22 28 33 56 92 73 86 100 92 100 100 98 97 100 78 75 94 86 100 87 89 98 87 79 84 95 90 88 97 99 98 100 99 100 100 100 100 100 99 100
98 100 97 98 98 93 93 90 59 23 11 11 14 28 34 64 90 98 100 93 98 84 85 100 99 98 80 69 69 73 84 100 77 97 99 89 61 70 86 92 96 91 90 95 93 95 99 98 96 99 100 98 100 100
100 100 100 100 84 62 31 15 11 10 11 22 39 91 94 100 100 100 100 100 91 97 100 100 99 80 70 69 84 76 83 84 90 94 84 73 63 79 90 97 100 96 94 96 97 97 99 99 96 94 95 97 100 100
100 99 89 41 27 20 15 11 10 11 25 51 57 100 100 96 94 97 100 100 100 100 100 99 84 70 78 84 88 80 76 94 94 90 85 57 74 95 100 100 100 99 98 97 94 96 96 97 97 90 85 92 93 99
54 38 39 19 17 16 14 12 11 18 52 65 94 88 86 76 83 87 90 95 97 90 85 68 73 87 95 98 87 100 90 92 82 70 67 82 98 98 92 90 85 77 83 89 94 98 96 95 98 96 87 84 89 98
34 66 24 18 18 16 12 10 26 59 64 68 86 89 88 97 96 88 90 88 86 81 85 74 86 100 86 89 85 96 99 81 56 75 81 90 93 84 81 78 70 75 82 78 78 76 81 92 94 96 89 83 88 90
61 52 19 17 13 10 16 27 46 62 84 79 78 84 85 83 75 72 64 59 66 74 67 85 79 96 100 99 86 67 64 79 95 100 96 93 90 90 96 99 98 99 100 98 93 88 81 79 85 90 94 94 99 91
19 18 17 16 15 15 25 35 48 74 77 75 72 70 72 74 74 73 67 61 60 60 62 66 88 99 88 78 84 93 98 100 100 100 97 86 92 98 99 97 99 98 99 100 100 100 100 99 96 94 97 100 100 98
17 16 15 17 20 24 34 39 48 46 54 56 57 56 60 64 65 66 65 65 64 72 75 88 97 96 99 97 100 100 100 100 100 100 90 85 94 98 99 100 100 100 100 99 98 100 100 98 92 99 98 99 100 100
11 18 19 22 25 29 46 45 49 52 53 52 56 57 55 57 62 69 80 81 80 96 93 94 98 97 100 100 100 100 100 100 100 100 100 100 96 100 100 98 100 100 100 100 100 97 100 100 100 100 100 99 97 93
24 26 28 29 30 37 44 52 52 53 50 50 57 56 53 60 70 79 94 97 98 96 99 99 100 100 98 98 98 100 100 100 99 99 99 100 98 99 97 99 100 97 98 99 100 100 98 100 100 100 98 95 100 100
23 24 26 28 30 38 50 56 56 58 56 61 57 55 57 62 71 94 92 96 96 98 98 99 98 98 98 97 97 98 100 99 98 99 99 99 98 98 98 97 100 100 98 96 100 100 100 100 100 99 100 99 99 98
24 27 28 33 39 47 48 54 62 65 66 75 91 88 76 74 75 92 96 96 96 97 96 96 97 91 87 92 96 96 98 98 96 93 100 100 98 95 98 97 98 99 100 98 99 99 99 99 100 100 100 100 98 100
27 48 42 56 57 50 72 71 72 71 100 96 91 81 78 84 91 97 96 94 99 100 100 98 96 97 98 93 96 96 98 98 98 96 99 98 96 88 86 91 95 98 99 98 99 100 100 100 100 100 100 100 100 99
70 67 59 72 76 72 93 94 100 100 100 96 92 86 89 90 99 96 95 97 98 97 97 98 100 94 79 90 92 88 94 96 97 97 97 97 98 98 98 98 97 89 99 100 100 100 100 100 100 100 100 100 100 100
66 61 60 71 70 74 71 76 80 84 98 98 89 92 100 100 97 91 93 96 96 96 97 99 98 96 92 78 70 65 66 68 80 91 95 96 97 98 99 99 98 97 96 98 99 100 100 100 100 100 100 100 100 100
54 52 56 61 60 66 63 66 73 82 77 86 92 96 98 98 94 94 97 98 98 97 96 94 88 87 80 73 71 65 55 48 43 47 55 79 95 100 100 99 99 99 100 99 100 99 99 100 100 100 100 100 100 100
48 51 53 47 50 54 55 56 52 54 58 62 70 78 83 91 91 93 95 96 96 97 93 89 78 76 71 67 65 66 60 61 58 50 46 53 60 78 93 97 97 96 98 98 100 100 100 100 100 100 100 100 100 100
44 46 42 40 41 43 42 44 42 42 46 52 58 64 66 67 75 92 94 94 95 97 97 98 92 81 77 71 63 57 60 56 61 65 72 72 89 76 99 99 97 96 97 98 100 97 95 93 86 94 100 100 100 100
32 33 32 35 34 33 32 32 31 34 36 40 42 50 50 56 67 79 90 95 96 96 91 91 92 86 78 74 71 67 59 57 55 51 49 57 60 56 66 92 97 99 98 97 97 97 95 93 94 99 100 100 100 100
26 24 27 27 28 30 28 30 32 30 31 35 35 40 43 52 60 76 90 97 99 95 96 97 96 90 78 72 69 66 64 62 57 53 50 51 46 49 48 53 82 97 96 96 96 96 96 95 97 100 100 100 100 100
22 24 27 28 28 27 31 34 33 30 33 33 36 38 43 50 59 72 86 96 94 88 88 89 91 86 77 73 69 66 63 60 57 54 51 48 44 46 44 43 50 84 94 94 93 95 96 97 97 100 100 100 100 100

GFSWCAN_850_rhum_309.txt.gz
RH
100 100 98 99 100 100 98 99 98 97 97 97 95 94 92 100 96 94 97 100 90 85 98 97 94 93 92 91 96 86 79 92 92 98 98 96 97 98 96 100 100 98 100 100 92 100 98 92 93 94 99 98 99 100
100 100 100 100 98 98 98 97 97 97 94 96 92 96 95 94 92 87 92 100 96 73 97 92 90 89 92 97 95 93 97 95 97 97 97 95 97 94 98 99 91 97 95 98 98 100 100 100 99 100 100 100 100 100
99 98 98 98 98 96 95 95 98 99 94 92 94 93 97 100 95 80 84 95 90 86 99 96 100 99 80 76 93 95 89 98 96 97 96 96 97 98 100 96 100 90 96 100 98 95 92 98 96 99 100 100 100 100
98 96 94 95 97 99 98 96 94 97 94 94 99 99 95 98 84 71 83 87 58 66 83 99 100 95 98 74 72 93 98 97 100 96 96 95 95 90 98 96 93 99 99 100 97 93 77 100 90 100 97 99 100 97
94 96 99 99 95 95 97 98 91 85 97 100 100 96 88 72 74 75 76 78 69 64 91 96 84 100 96 82 68 80 96 98 97 96 96 100 98 90 99 86 100 100 100 100 98 100 100 89 97 100 100 96 92 99
94 94 95 96 98 95 98 95 97 95 100 100 97 82 72 70 61 57 54 67 69 58 66 97 74 62 96 79 75 66 83 92 94 95 100 100 100 95 99 99 99 100 100 100 95 100 98 84 82 92 100 92 91 100
98 98 97 97 94 73 90 97 99 100 100 92 76 76 82 73 63 59 94 95 78 59 66 99 84 62 64 75 90 78 63 76 85 93 98 98 95 93 99 100 95 95 94 87 99 100 93 91 100 96 100 94 92 89
47 53 83 94 94 93 93 96 98 99 90 79 61 39 30 34 48 52 73 96 77 56 52 86 80 64 65 73 90 91 70 64 70 92 89 80 68 73 99 89 96 97 94 76 88 92 98 95 87 90 94 92 94 88
13 40 90 92 91 98 96 80 100 96 92 54 31 30 26 25 37 59 31 31 46 44 62 81 100 99 73 76 84 86 72 95 68 66 67 69 91 100 91 100 100 94 100 100 100 94 88 93 94 90 93 91 97 90
11 9 17 70 100 96 99 98 88 85 44 23 14 11 21 30 25 26 24 25 33 46 57 92 90 100 91 92 88 77 66 99 100 98 70 94 100 80 78 86 94 93 96 100 100 99 97 99 100 99 99 96 97 96
100 94 25 86 98 97 100 94 47 43 35 19 14 24 26 26 26 30 47 65 66 86 90 92 96 100 92 100 100 87 96 91 99 91 83 98 95 68 74 74 81 91 93 92 100 100 100 100 100 100 99 95 97 97
88 100 82 100 96 98 99 52 51 53 34 14 13 19 22 27 32 54 92 74 85 99 92 100 100 100 98 100 76 75 94 86 98 89 87 92 85 54 66 73 78 81 84 88 89 94 94 96 97 100 100 98 97 98
99 97 97 97 97 95 70 75 55 13 10 11 14 26 30 59 88 95 100 92 98 89 87 100 99 96 78 74 67 70 80 97 78 94 91 86 43 51 63 72 72 75 82 83 86 90 93 94 92 98 99 93 97 96
98 100 96 94 90 86 81 43 10 10 10 19 35 88 92 100 100 100 100 99 88 99 100 100 100 77 71 68 87 72 84 87 84 85 75 66 46 59 66 71 89 81 78 82 76 75 82 90 91 90 92 93 96 87
100 96 69 61 44 20 12 10 10 10 22 45 51 100 100 94 90 94 99 100 100 100 100 92 84 68 76 84 89 78 73 85 89 81 81 44 59 80 85 88 95 97 94 85 76 82 78 77 79 75 75 87 89 89
62 25 21 15 14 12 12 11 10 15 45 57 85 81 80 73 78 85 86 91 99 95 84 70 70 85 94 98 76 97 87 87 75 60 59 81 94 94 97 100 100 100 100 100 99 100 100 98 94 92 82 80 82 92
18 37 19 17 15 13 10 8 21 50 56 60 77 87 83 89 92 89 91 82 87 84 80 71 78 96 87 85 79 91 90 76 70 91 91 96 100 100 100 99 97 100 100 100 100 99 100 100 100 100 100 89 87 90
53 40 17 14 11 9 17 24 44 54 78 77 75 81 85 87 84 85 72 64 63 66 64 82 77 86 93 98 96 85 93 99 100 100 100 100 100 100 100 100 99 100 100 100 100 100 100 100 100 97 99 97 99 94
17 16 13 12 17 22 29 38 44 67 68 67 65 66 70 73 76 79 79 67 64 65 64 68 87 99 96 97 98 97 100 100 100 100 100 92 98 100 100 100 100 100 100 100 100 100 100 99 100 100 100 100 100 99
16 19 20 22 24 27 33 39 45 45 52 57 56 54 58 61 67 74 72 74 72 76 81 97 98 97 98 98 100 100 100 100 100 100 96 92 97 100 100 100 100 100 99 97 99 100 100 98 98 100 100 100 100 99
19 26 26 26 30 36 45 44 47 51 53 51 52 54 54 59 66 75 85 88 89 97 96 95 98 96 99 99 100 100 99 100 100 100 100 98 98 100 97 98 100 100 100 99 100 99 100 100 100 100 100 94 96 98
27 28 29 30 32 38 44 51 53 52 48 49 52 52 50 56 68 81 96 98 96 96 98 98 99 99 97 97 97 98 98 98 98 98 99 100 97 97 94 98 98 97 100 99 100 100 98 100 100 100 100 100 100 100
24 25 28 29 30 35 49 50 51 52 50 55 50 52 56 61 71 97 95 96 96 98 98 99 99 96 94 89 93 97 99 98 97 98 98 98 97 97 96 96 99 100 98 95 100 100 99 100 99 99 99 100 100 100
26 28 29 35 37 43 47 51 57 59 62 69 84 82 74 73 75 91 94 95 96 96 97 98 95 83 75 76 84 93 94 96 96 97 100 100 98 90 93 95 97 99 100 100 100 100 100 100 100 100 99 100 100 100
28 46 40 52 56 49 67 67 67 67 99 92 88 79 79 84 93 99 96 93 97 99 97 94 91 92 95 81 73 68 77 88 86 79 92 96 94 87 86 90 91 94 100 100 100 100 98 99 96 100 100 100 100 100
68 65 56 66 68 64 88 86 99 99 97 95 88 86 91 93 99 97 95 97 98 97 97 97 97 92 80 87 84 73 68 73 74 64 60 71 96 99 97 100 100 92 99 99 100 100 100 99 100 100 100 100 100 100
64 60 60 70 68 67 65 76 79 85 97 97 88 94 100 100 98 84 89 97 97 97 97 97 96 92 90 79 71 68 65 67 74 69 58 59 71 90 100 99 98 98 98 98 98 100 100 100 100 100 100 100 100 100
54 51 55 60 57 61 59 60 66 76 69 79 89 97 96 96 92 91 95 98 100 98 95 94 94 89 88 78 73 70 64 62 57 56 54 53 55 71 85 91 100 99 98 99 100 98 99 100 100 100 100 100 100 100
47 52 52 46 47 48 50 50 47 48 52 57 66 72 79 81 74 81 94 95 96 95 89 88 86 85 78 73 71 70 66 64 66 63 56 56 47 50 62 74 74 99 97 98 98 100 100 100 100 100 100 100 100 100
42 44 41 42 42 41 36 39 38 38 41 47 52 55 54 53 65 80 89 91 94 94 94 95 97 95 85 80 73 66 63 60 59 65 69 68 81 78 78 72 63 88 100 100 98 97 98 98 91 95 98 97 99 100
32 31 31 35 36 34 33 30 29 31 33 35 37 42 43 48 61 75 85 89 90 86 85 84 86 92 84 78 76 71 63 58 54 48 48 59 76 85 84 66 56 71 100 100 100 98 98 98 99 100 100 99 100 100
26 24 25 25 27 28 26 29 32 32 31 33 33 38 38 46 54 66 72 81 82 74 74 78 82 80 74 70 66 64 61 56 48 46 59 74 81 85 74 61 52 69 95 100 100 99 98 98 99 100 100 100 100 100
23 23 28 31 28 28 32 35 33 31 34 32 34 36 39 44 48 52 65 76 77 71 69 68 70 69 66 63 60 59 56 50 46 55 68 70 58 60 58 56 63 82 93 97 99 99 97 98 99 100 100 100 100 100